ELEKTRO-L 3

Last updated on Oct. 24, 2020, 5:55 a.m. UTC

1 44903U 19095A   20297.84590626 -.00000112  00000-0  00000-0 0  9999
2 44903   0.0555 350.6160 0000957 207.3030 215.3643  1.00270984  3035
UTC
Height (km)
Latitude
Longitude
Inclination
Orbital Period
UTC large
Height (km)
Speed (km/s)
/
Latitude / Longitude
Inclination (degrees)
Orbital Period (minutes)
Azimuth
Elevation
Range (km)
Doppler Factor
iOS Compass Heading
iOS Angle

Next 30 passes for location: Hong Kong

Rise time Rise Azimuth (degrees) Set time Set Azimuth (degrees) Duration Max altitude (degrees)

No matching passes for this satellites